Change the Weather History Date:

Monday, July 15, 2013

  Actual Average Record
Temperature  
Mean Temperature 81 °F -  
Max Temperature 88 °F 87 °F - ()
Min Temperature 74 °F 72 °F - ()
Cooling Degree Days 16    
Growing Degree Days 31 (Base 50)    
Moisture  
Dew Point 68 °F    
Average Humidity 65    
Maximum Humidity 78    
Minimum Humidity 43    
Precipitation  
Precipitation 0.00 in - - ()
Sea Level Pressure  
Sea Level Pressure 29.72 in    
Wind  
Wind Speed 6 mph ()    
Max Wind Speed 20 mph    
Max Gust Speed -    
Visibility 5.9 miles    
Events      
T = Trace of Precipitation, MM = Missing Value Source: Averaged Metar Reports

Daily Weather History Graph

Daily Weather History Graph

Search for Another Location

Airport or City:

Trip Planner

Search our weather history database for the weather conditions in past years. The results will help you decide how hot, cold, wet, or windy it might be!

Date:

Astronomy

Jul. 15, 2013 Rise Set
Actual Time 5:44 AM IDT 7:47 PM IDT
Civil Twilight 5:17 AM IDT 8:15 PM IDT
Nautical Twilight 4:43 AM IDT 8:48 PM IDT
Astronomical Twilight 4:07 AM IDT 9:24 PM IDT
Moon 12:14 PM IDT (7/15) 11:51 PM IDT (7/15)
Length of Visible Light 14h 57m
Length of Day
14h 02m
Waxing Crescent, 42% of the Moon is Illuminated
Jul 15
Waxing Crescent
Jul 16
First Quarter
Jul 22
Full
Jul 29
Last Quarter
Aug 7
New

Hourly Weather History & Observations

Time (IDT) Temp. Heat Index Dew Point Humidity Pressure Visibility Wind Dir Wind Speed Gust Speed Precip Events Conditions
12:00 AM 78 °F - 68 °F 65% 29.73 in 6 mi 6.7 mph - -  
12:20 AM 78.8 °F - 68.0 °F 69% 29.71 in - Variable 3.5 mph - N/A   Clear
12:50 AM 78.8 °F - 68.0 °F 69% 29.71 in 6.2 mi South 4.6 mph - N/A   Partly Cloudy
1:20 AM 77.0 °F - 68.0 °F 74% 29.71 in 6.2 mi South 4.6 mph - N/A   Partly Cloudy
1:50 AM 77.0 °F - 68.0 °F 74% 29.71 in - South 4.6 mph - N/A   Clear
2:20 AM 75.2 °F - 68.0 °F 78% 29.71 in - South 4.6 mph - N/A   Clear
2:50 AM 75.2 °F - 68.0 °F 78% 29.71 in - South 4.6 mph - N/A   Clear
3:00 AM 75 °F - 68 °F 74% 29.72 in 6 mi South 8.9 mph - -  
3:20 AM 75.2 °F - 68.0 °F 78% 29.71 in 6.2 mi South 4.6 mph - N/A   Mostly Cloudy
3:50 AM 77.0 °F - 68.0 °F 74% 29.71 in 6.2 mi South 4.6 mph - N/A   Mostly Cloudy
4:20 AM 77.0 °F - 68.0 °F 74% 29.71 in 6.2 mi South 4.6 mph - N/A   Mostly Cloudy
4:50 AM 75.2 °F - 68.0 °F 78% 29.71 in 6.2 mi SSE 5.8 mph - N/A   Mostly Cloudy
5:20 AM 75.2 °F - 68.0 °F 78% 29.71 in 6.2 mi South 5.8 mph - N/A   Scattered Clouds
5:50 AM 75.2 °F - 68.0 °F 78% 29.74 in 5.0 mi South 6.9 mph - N/A   Partly Cloudy
6:00 AM 75 °F - 68 °F 72% 29.73 in 5 mi South 6.9 mph - -   Haze
6:20 AM 75.2 °F - 68.0 °F 78% 29.74 in 5.0 mi South 4.6 mph - N/A   Partly Cloudy
6:50 AM 75.2 °F - 66.2 °F 73% 29.74 in 5.0 mi SSE 6.9 mph - N/A   Partly Cloudy
7:20 AM 77.0 °F - 68.0 °F 74% 29.74 in 5.0 mi SSE 6.9 mph - N/A   Clear
7:50 AM 78.8 °F - 69.8 °F 74% 29.74 in - South 5.8 mph - N/A   Clear
8:20 AM 78.8 °F - 69.8 °F 74% 29.74 in 6.2 mi South 4.6 mph - N/A   Scattered Clouds
8:50 AM 80.6 °F 83.2 °F 68.0 °F 65% 29.74 in 6.2 mi SSW 5.8 mph - N/A   Scattered Clouds
9:00 AM 80 °F - 68 °F 58% 29.75 in 6 mi SSW 11.2 mph - -   Partly Cloudy
9:20 AM 82.4 °F 84.6 °F 66.2 °F 58% 29.74 in 6.2 mi Variable 3.5 mph - N/A   Scattered Clouds
9:50 AM 82.4 °F 84.6 °F 66.2 °F 58% 29.74 in 6.2 mi Variable 3.5 mph - N/A   Partly Cloudy
10:20 AM 84.2 °F 86.6 °F 66.2 °F 55% 29.74 in - WSW 4.6 mph - N/A   Clear
10:50 AM 86.0 °F 89.4 °F 68.0 °F 55% 29.74 in - West 9.2 mph - N/A   Clear
11:20 AM 87.8 °F 91.4 °F 68.0 °F 52% 29.71 in 6.2 mi West 6.9 mph - N/A   Partly Cloudy
11:50 AM 86.0 °F 89.4 °F 68.0 °F 55% 29.71 in 6.2 mi West 10.4 mph - N/A   Partly Cloudy
12:00 PM 87 °F - 68 °F 43% 29.73 in 6 mi West 20.1 mph - -   Scattered Clouds
12:20 PM 86.0 °F 89.4 °F 68.0 °F 55% 29.71 in 6.2 mi West 11.5 mph - N/A   Partly Cloudy
12:50 PM 87.8 °F 91.4 °F 68.0 °F 52% 29.71 in - WNW 10.4 mph - N/A   Clear
1:20 PM 87.8 °F 91.4 °F 68.0 °F 52% 29.71 in - West 11.5 mph - N/A   Clear
1:50 PM 86.0 °F 88.2 °F 66.2 °F 51% 29.71 in - West 11.5 mph - N/A   Clear
2:20 PM 86.0 °F 88.2 °F 66.2 °F 51% 29.71 in - WNW 12.7 mph - N/A   Clear
2:50 PM 86.0 °F 88.2 °F 66.2 °F 51% 29.71 in - West 10.4 mph - N/A   Clear
3:00 PM 87 °F - 68 °F 44% 29.70 in 6 mi West 11.5 mph - -  
3:20 PM 86.0 °F 88.2 °F 66.2 °F 51% 29.68 in - West 11.5 mph - N/A   Clear
3:50 PM 86.0 °F 89.4 °F 68.0 °F 55% 29.68 in - WNW 12.7 mph - N/A   Clear
4:20 PM 86.0 °F 89.4 °F 68.0 °F 55% 29.68 in - WNW 12.7 mph - N/A   Clear
4:50 PM 86.0 °F 89.4 °F 68.0 °F 55% 29.68 in - WNW 9.2 mph - N/A   Clear
5:20 PM 86.0 °F 89.4 °F 68.0 °F 55% 29.68 in - NW 8.1 mph - N/A   Clear
5:50 PM 84.2 °F 87.3 °F 68.0 °F 58% 29.68 in - NW 8.1 mph - N/A   Clear
6:00 PM 85 °F - 68 °F 47% 29.69 in 6 mi NW 15.7 mph - -  
6:20 PM 84.2 °F 87.3 °F 68.0 °F 58% 29.68 in - WNW 8.1 mph - N/A   Clear
6:50 PM 84.2 °F 87.3 °F 68.0 °F 58% 29.68 in - NNW 6.9 mph - N/A   Clear
7:20 PM 82.4 °F 86.3 °F 69.8 °F 66% 29.68 in - WNW 8.1 mph - N/A   Clear
7:50 PM 80.6 °F 83.9 °F 69.8 °F 70% 29.71 in - WNW 8.1 mph - N/A   Clear
8:20 PM 80.6 °F 83.9 °F 69.8 °F 70% 29.71 in - NW 6.9 mph - N/A   Clear
8:50 PM 80.6 °F 83.9 °F 69.8 °F 70% 29.71 in - NW 5.8 mph - N/A   Clear
9:00 PM 80 °F - 70 °F 64% 29.72 in 6 mi NW 11.2 mph - -  
9:20 PM 80.6 °F 83.9 °F 69.8 °F 70% 29.71 in - WNW 4.6 mph - N/A   Clear
9:50 PM 78.8 °F - 69.8 °F 74% 29.74 in - WNW 5.8 mph - N/A   Clear
10:20 PM 78.8 °F - 69.8 °F 74% 29.74 in - Variable 3.5 mph - N/A   Clear
10:50 PM 78.8 °F - 69.8 °F 74% 29.74 in - Variable 3.5 mph - N/A   Clear
11:20 PM 78.8 °F - 69.8 °F 74% 29.74 in - Variable 2.3 mph - N/A   Clear
11:50 PM 77.0 °F - 69.8 °F 78% 29.74 in - Variable 2.3 mph - N/A   Clear